| time (UTC) | temp F | wind direction | speed MPH | gust MPH | rain 1hr in | rain 24hr in | rain mn in | humidity % | barometer mb |
| 20260507070016 | 62 | 294 | 0.0 | 0.0 | 0.01 | 0.35 | 0.05 | 95 | 1010.7 |
| 20260507064512 | 62 | 326 | 0.0 | 2.0 | 0.02 | 0.35 | 0.05 | 95 | 1011.0 |
| 20260507063029 | 62 | 147 | 0.0 | 2.0 | 0.03 | 0.35 | 0.05 | 95 | 1011.2 |
| 20260507061527 | 62 | 153 | 1.0 | 3.0 | 0.02 | 0.34 | 0.04 | 95 | 1011.6 |
| 20260507060024 | 62 | 113 | 0.0 | 0.0 | 0.03 | 0.34 | 0.04 | 95 | 1011.7 |
| 20260507054519 | 62 | 113 | 0.0 | 0.0 | 0.02 | 0.33 | 0.03 | 95 | 1011.6 |
| 20260507053017 | 62 | 57 | 0.0 | 0.0 | 0.02 | 0.32 | 0.02 | 95 | 1011.8 |
| 20260507051529 | 62 | 315 | 0.0 | 2.0 | 0.02 | 0.32 | 0.02 | 95 | 1013.4 |
| 20260507050028 | 62 | 125 | 0.0 | 2.0 | 0.01 | 0.31 | 0.01 | 95 | 1013.0 |
| 20260507044527 | 62 | 141 | 1.0 | 3.0 | 0.01 | 0.31 | 0.01 | 95 | 1013.5 |
| 20260507043008 | 62 | 336 | 0.0 | 3.0 | 0.01 | 0.30 | 0.00 | 95 | 1013.0 |
| 20260507041530 | 62 | 341 | 0.0 | 0.0 | 0.01 | 0.30 | 0.00 | 95 | 1012.7 |
| 20260507040024 | 62 | 132 | 0.0 | 0.0 | 0.02 | 0.30 | 0.00 | 95 | 1012.3 |
| 20260507034525 | 62 | 139 | 0.0 | 2.0 | 0.03 | 0.30 | 0.30 | 95 | 1012.4 |
| 20260507033026 | 62 | 126 | 0.0 | 2.0 | 0.02 | 0.29 | 0.29 | 95 | 1012.7 |
| 20260507030017 | 63 | 145 | 3.0 | 12.0 | 0.03 | 0.28 | 0.28 | 94 | 1011.5 |
| 20260507024508 | 63 | 148 | 1.0 | 3.0 | 0.04 | 0.27 | 0.27 | 94 | 1013.8 |
| 20260507023023 | 63 | 252 | 0.0 | 1.0 | 0.06 | 0.27 | 0.27 | 94 | 1013.8 |
| 20260507021523 | 64 | 150 | 0.0 | 1.0 | 0.06 | 0.26 | 0.26 | 94 | 1013.3 |
| 20260507020029 | 64 | 315 | 0.0 | 2.0 | 0.06 | 0.25 | 0.25 | 94 | 1013.2 |
| 20260507014532 | 64 | 151 | 1.0 | 3.0 | 0.04 | 0.23 | 0.23 | 94 | 1012.8 |
| 20260507013012 | 65 | 150 | 0.0 | 4.0 | 0.04 | 0.21 | 0.21 | 93 | 1013.1 |
| 20260507011516 | 65 | 141 | 0.0 | 3.0 | 0.07 | 0.20 | 0.20 | 93 | 1012.7 |
| 20260507010029 | 66 | 154 | 2.0 | 5.0 | 0.10 | 0.19 | 0.19 | 93 | 1012.4 |
| 20260507004526 | 66 | 152 | 2.0 | 6.0 | 0.11 | 0.19 | 0.19 | 93 | 1012.0 |
| 20260507003025 | 66 | 163 | 1.0 | 4.0 | 0.10 | 0.17 | 0.17 | 92 | 1012.0 |
| 20260507001525 | 67 | 321 | 0.0 | 4.0 | 0.06 | 0.13 | 0.13 | 92 | 1012.7 |
| 20260507000019 | 67 | 175 | 0.0 | 3.0 | 0.03 | 0.09 | 0.09 | 92 | 1012.9 |
| 20260506234518 | 67 | 96 | 0.0 | 3.0 | 0.03 | 0.08 | 0.08 | 92 | 1012.3 |
| 20260506233014 | 67 | 148 | 0.0 | 1.0 | 0.02 | 0.07 | 0.07 | 92 | 1011.7 |
| 20260506224522 | 70 | 171 | 0.0 | 0.0 | 0.00 | 0.05 | 0.05 | 85 | 1012.2 |
| 20260506223025 | 71 | 171 | 0.0 | 1.0 | 0.00 | 0.05 | 0.05 | 81 | 1012.1 |
| 20260506221518 | 72 | 205 | 0.0 | 3.0 | 0.00 | 0.05 | 0.05 | 77 | 1011.9 |
| 20260506220015 | 72 | 348 | 2.0 | 3.0 | 0.00 | 0.05 | 0.05 | 76 | 1012.1 |
| 20260506213025 | 72 | 84 | 2.0 | 6.0 | 0.00 | 0.05 | 0.05 | 79 | 1011.8 |
| 20260506211525 | 71 | 172 | 4.0 | 9.0 | 0.00 | 0.05 | 0.05 | 79 | 1011.7 |
| 20260506210025 | 71 | 153 | 3.0 | 6.0 | 0.00 | 0.05 | 0.05 | 80 | 1011.8 |
| 20260506204524 | 71 | 127 | 4.0 | 7.0 | 0.00 | 0.05 | 0.05 | 79 | 1011.9 |
| 20260506203026 | 71 | 205 | 1.0 | 12.0 | 0.00 | 0.05 | 0.05 | 79 | 1012.1 |
| 20260506201523 | 70 | 34 | 2.0 | 18.0 | 0.00 | 0.05 | 0.05 | 79 | 1012.6 |
| 20260506200015 | 70 | 153 | 2.0 | 9.0 | 0.00 | 0.05 | 0.05 | 79 | 1012.6 |
| 20260506194524 | 70 | 141 | 1.0 | 11.0 | 0.00 | 0.05 | 0.05 | 80 | 1012.9 |
| 20260506193028 | 70 | 130 | 3.0 | 9.0 | 0.00 | 0.05 | 0.05 | 82 | 1012.9 |
| 20260506191525 | 70 | 123 | 2.0 | 13.0 | 0.00 | 0.05 | 0.05 | 79 | 1012.7 |
| 20260506190022 | 69 | 80 | 2.0 | 7.0 | 0.00 | 0.05 | 0.05 | 82 | 1012.7 |
| 20260506184526 | 69 | 214 | 4.0 | 11.0 | 0.00 | 0.05 | 0.05 | 81 | 1012.7 |
| 20260506183018 | 68 | 225 | 2.0 | 8.0 | 0.00 | 0.05 | 0.05 | 85 | 1012.6 |
| 20260506180016 | 66 | 79 | 2.0 | 8.0 | 0.00 | 0.05 | 0.05 | 87 | 1012.7 |
| 20260506174512 | 66 | 126 | 3.0 | 8.0 | 0.00 | 0.05 | 0.05 | 88 | 1012.3 |
| 20260506173009 | 65 | 180 | 2.0 | 8.0 | 0.03 | 0.05 | 0.05 | 90 | 1013.1 |
| 20260506171507 | 64 | 265 | 1.0 | 5.0 | 0.05 | 0.05 | 0.05 | 90 | 1014.1 |
| 20260506164528 | 64 | 179 | 0.0 | 4.0 | 0.05 | 0.05 | 0.05 | 89 | 1014.5 |
| 20260506163022 | 66 | 78 | 0.0 | 2.0 | 0.02 | 0.02 | 0.02 | 85 | 1015.1 |
| 20260506161515 | 67 | 159 | 0.0 | 3.0 | 0.00 | 0.00 | 0.00 | 81 | 1015.0 |
| 20260506160011 | 68 | 315 | 1.0 | 3.0 | 0.00 | 0.00 | 0.00 | 76 | 1014.3 |
| 20260506154510 | 68 | 60 | 0.0 | 9.0 | 0.00 | 0.00 | 0.00 | 73 | 1013.9 |
| 20260506153007 | 68 | 153 | 4.0 | 11.0 | 0.00 | 0.00 | 0.00 | 72 | 1013.8 |
| 20260506151523 | 68 | 162 | 2.0 | 6.0 | 0.00 | 0.00 | 0.00 | 73 | 1013.4 |
| 20260506150022 | 67 | 216 | 3.0 | 12.0 | 0.00 | 0.00 | 0.00 | 75 | 1013.4 |
| 20260506143016 | 65 | 162 | 3.0 | 10.0 | 0.00 | 0.00 | 0.00 | 78 | 1013.3 |
| 20260506141512 | 65 | 140 | 1.0 | 4.0 | 0.00 | 0.00 | 0.00 | 76 | 1013.7 |
| 20260506140010 | 65 | 192 | 0.0 | 3.0 | 0.00 | 0.00 | 0.00 | 76 | 1013.7 |
| 20260506134507 | 64 | 329 | 1.0 | 7.0 | 0.00 | 0.00 | 0.00 | 77 | 1013.6 |
| 20260506133024 | 64 | 182 | 1.0 | 5.0 | 0.00 | 0.00 | 0.00 | 78 | 1013.0 |
| 20260506131532 | 63 | 146 | 0.0 | 7.0 | 0.00 | 0.00 | 0.00 | 79 | 1013.0 |
| 20260506130018 | 62 | 213 | 4.0 | 7.0 | 0.00 | 0.00 | 0.00 | 80 | 1013.0 |
| 20260506124528 | 61 | 242 | 0.0 | 7.0 | 0.00 | 0.00 | 0.00 | 81 | 1013.1 |
| 20260506123015 | 60 | 128 | 1.0 | 5.0 | 0.00 | 0.00 | 0.00 | 83 | 1013.1 |
| 20260506121510 | 60 | 168 | 2.0 | 5.0 | 0.00 | 0.00 | 0.00 | 83 | 1013.1 |
| 20260506120022 | 59 | 134 | 0.0 | 4.0 | 0.00 | 0.00 | 0.00 | 83 | 1013.6 |
| 20260506114524 | 59 | 144 | 0.0 | 2.0 | 0.00 | 0.00 | 0.00 | 1014.1 | |
| 20260506113028 | 59 | 132 | 0.0 | 3.0 | 0.00 | 0.00 | 0.00 | 1013.4 | |
| 20260506111522 | 58 | 156 | 0.0 | 3.0 | 0.00 | 0.00 | 0.00 | 84 | 1013.2 |
| 20260506110030 | 58 | 128 | 1.0 | 2.0 | 0.00 | 0.00 | 0.00 | 84 | 1013.0 |
| 20260506103020 | 59 | 120 | 0.0 | 4.0 | 0.00 | 0.00 | 0.00 | 82 | 1012.8 |
| 20260506101533 | 59 | 171 | 0.0 | 3.0 | 0.00 | 0.00 | 0.00 | 83 | 1012.7 |
| 20260506100024 | 59 | 154 | 1.0 | 7.0 | 0.00 | 0.00 | 0.00 | 82 | 1012.4 |
| 20260506094527 | 59 | 167 | 1.0 | 6.0 | 0.00 | 0.00 | 0.00 | 81 | 1012.9 |
| 20260506093031 | 59 | 149 | 1.0 | 7.0 | 0.00 | 0.00 | 0.00 | 80 | 1012.5 |
| 20260506090021 | 61 | 200 | 1.0 | 4.0 | 0.00 | 0.00 | 0.00 | 78 | 1012.9 |
| 20260506084515 | 60 | 140 | 2.0 | 7.0 | 0.00 | 0.00 | 0.00 | 79 | 1012.7 |
| 20260506081515 | 61 | 133 | 3.0 | 9.0 | 0.00 | 0.00 | 0.00 | 78 | 1013.1 |
| 20260506073021 | 62 | 149 | 0.0 | 2.0 | 0.00 | 0.00 | 0.00 | 77 | 1013.1 |
| 20260506071519 | 62 | 18 | 0.0 | 2.0 | 0.00 | 0.00 | 0.00 | 76 | 1013.2 |